Wind_Speed
10 4 4 6 6 7 8 9 10 10 11 11 8 4 4 4 6 8 6 12 9 6 5 7 7 7 7 7 7 6 2 6 10 14 17 24 26 26 28 26 25 24 19 17 16 17 18 16 15 15 14 14 17 16 14 12 11 10 12 17 19 19 21 21 21 20 20 22 22 21 21 22 23 22 22 22 22 21 19 19 20 20 18 16 15 15
10 5 6 9 9 10 10 10 11 12 12 10 8 5 6 4 7 10 5 13 7 6 5 6 4 3 6 7 9 9 6 3 8 10 11 20 25 24 26 26 26 25 22 20 19 19 19 18 16 16 15 17 20 19 15 13 12 10 13 18 21 21 20 21 22 21 22 24 25 24 22 22 22 22 23 23 24 23 20 20 20 19 19 17 16 16
6 6 11 12 9 11 11 11 11 12 10 7 5 4 5 4 5 9 2 6 3 4 5 5 5 3 6 5 9 10 9 10 10 11 13 21 26 25 28 29 27 28 27 25 23 21 21 20 20 19 19 21 23 21 18 15 12 11 13 18 22 21 20 21 21 20 21 24 26 25 25 24 22 22 23 23 23 22 22 21 20 19 20 18 17 18
5 8 12 12 10 11 11 12 10 6 3 1 2 2 4 3 4 5 2 1 1 2 4 6 5 3 5 5 7 10 14 14 12 13 15 21 29 30 30 31 29 32 33 29 27 27 25 25 26 25 25 24 24 23 21 17 13 12 15 19 22 22 19 19 19 19 21 24 25 26 25 24 23 23 24 23 22 23 22 23 22 20 20 19 18 18
8 11 12 12 13 11 10 11 7 3 1 1 1 2 4 5 6 6 6 4 3 2 2 7 2 3 4 5 5 9 13 11 11 13 14 16 24 28 30 33 34 33 34 33 31 31 31 31 31 30 28 26 26 26 24 19 13 15 18 20 21 21 17 17 18 20 22 25 27 27 25 24 25 27 27 27 26 25 25 25 24 22 20 19 19 19
10 12 12 13 15 14 12 9 4 5 1 3 1 4 5 7 9 9 10 7 4 4 2 5 1 5 4 6 6 7 8 9 11 10 13 19 17 19 23 24 32 36 34 35 35 34 34 33 31 30 28 28 29 28 25 19 16 18 20 21 21 19 15 15 18 22 24 26 28 30 29 27 29 31 31 29 27 27 28 26 23 22 20 19 19 18
7 10 9 9 11 9 6 3 3 6 3 2 3 4 6 8 9 9 10 7 1 3 4 3 4 4 4 4 6 6 6 9 10 8 14 16 4 7 6 8 7 26 32 33 35 35 35 33 31 30 30 31 31 30 26 21 20 22 22 23 21 16 14 15 18 22 25 27 29 31 32 31 30 31 30 29 26 26 28 25 22 22 21 20 19 18
7 9 8 6 6 5 4 2 3 6 4 3 5 7 9 8 9 10 8 6 2 3 5 3 3 1 3 5 6 5 7 6 4 9 6 2 19 26 24 25 15 8 23 31 35 33 28 25 24 24 26 30 30 29 26 23 22 22 21 23 20 14 16 17 18 22 25 27 29 31 33 32 31 30 28 29 27 26 27 25 23 22 20 19 17 17
7 9 8 8 4 4 4 4 5 7 4 4 7 9 9 5 8 9 5 3 2 2 5 5 3 2 3 5 6 7 6 3 8 10 9 13 21 26 26 25 20 7 13 23 26 23 18 18 20 21 23 27 28 27 24 21 21 20 19 22 19 15 18 19 19 23 25 25 27 29 33 32 30 29 29 29 28 28 28 26 23 22 20 18 17 18
5 8 11 8 4 3 4 3 4 6 5 6 9 9 7 5 5 2 3 2 4 3 4 5 1 1 4 5 4 4 2 3 7 8 9 15 21 25 27 27 25 20 14 14 15 16 16 18 21 22 25 28 29 24 18 16 19 21 21 23 21 16 18 20 20 24 26 25 25 28 31 31 30 30 31 30 29 29 29 26 24 22 21 19 18 18
8 10 10 6 3 4 7 6 5 6 6 7 8 5 4 5 2 3 3 4 4 3 5 6 3 2 4 5 4 3 3 3 4 6 8 13 20 24 25 25 24 24 22 17 14 14 16 18 21 23 25 28 28 23 20 19 20 22 23 24 23 20 19 21 22 25 26 25 26 27 29 30 30 31 32 32 30 30 29 27 24 21 20 19 18 18
10 9 5 2 2 1 2 3 5 8 7 3 2 1 2 4 4 5 5 4 1 5 5 5 5 3 2 3 4 3 4 5 6 6 6 8 15 21 24 25 21 18 18 16 13 11 11 14 18 19 19 23 23 21 22 24 23 24 25 25 25 24 22 23 25 26 25 25 26 26 27 29 30 31 33 32 31 31 29 27 25 22 20 19 18 19
8 5 2 3 2 2 4 2 2 6 4 2 2 2 2 2 3 2 1 0 2 5 5 5 5 4 3 0 3 4 5 6 8 9 9 11 15 19 23 27 26 19 15 14 13 9 4 4 8 10 11 16 20 20 24 26 25 26 25 25 27 26 25 26 28 28 25 23 24 25 26 29 30 31 31 30 30 31 29 27 25 23 22 20 20 20
4 4 3 2 4 7 6 2 1 4 2 5 3 3 4 2 0 1 3 3 4 5 5 3 1 1 3 1 4 4 4 7 12 15 17 19 20 21 24 30 30 25 20 17 17 15 8 4 3 8 11 15 19 21 25 27 26 26 24 25 28 28 27 28 30 28 23 22 22 23 26 29 30 31 30 29 28 28 28 27 25 24 22 21 21 20
3 4 5 4 3 9 8 5 6 4 3 5 6 6 5 4 3 3 3 3 4 3 2 1 2 1 3 2 3 2 6 11 17 18 20 22 23 25 28 31 30 27 24 20 20 22 15 7 2 7 12 15 18 20 24 27 27 26 25 26 29 31 30 30 30 27 22 22 22 22 25 29 31 31 29 27 24 24 25 25 24 24 22 21 20 18
3 4 6 9 9 11 8 7 8 4 4 3 4 5 4 4 4 4 4 4 4 1 2 1 2 2 3 1 3 5 8 12 16 19 21 21 22 27 29 30 30 27 28 26 24 26 22 14 6 1 7 11 15 18 22 26 25 24 23 24 28 30 30 30 28 24 23 23 23 22 25 30 31 30 28 24 21 22 24 24 23 23 22 21 19 17
3 4 3 6 7 10 12 10 9 6 3 2 0 2 6 7 6 3 4 4 3 3 2 2 4 2 2 2 7 8 9 11 13 15 19 21 24 27 26 27 28 25 26 28 27 27 26 20 14 8 5 8 13 16 19 21 21 20 20 22 23 22 23 25 24 22 22 23 22 21 25 30 31 30 27 24 22 22 23 24 24 23 21 19 18 17
4 3 4 4 2 5 13 11 7 10 8 2 2 3 4 4 4 2 1 2 2 2 3 3 6 2 1 1 5 9 10 9 9 11 15 20 24 24 23 25 28 25 24 26 28 28 27 23 19 14 10 8 10 13 15 16 18 20 19 17 16 15 16 19 21 20 19 20 22 22 24 28 30 28 26 24 23 23 24 26 25 22 19 17 15 15
3 1 3 4 2 5 9 6 2 6 10 7 3 2 2 2 3 1 1 2 1 1 2 2 7 3 2 1 3 6 7 6 7 10 12 16 20 21 22 24 26 26 27 27 27 28 27 25 22 17 12 6 6 11 14 15 16 17 17 16 14 13 14 16 18 19 20 22 23 24 24 26 27 27 26 25 24 24 25 26 24 20 18 16 15 14
2 2 2 3 2 3 4 3 1 3 4 6 4 3 0 4 4 2 3 3 3 2 2 2 4 2 1 1 2 4 5 5 7 9 9 13 19 22 24 25 25 27 28 28 28 28 28 27 24 21 16 8 3 6 8 11 13 13 15 16 17 15 14 16 20 22 24 26 25 24 25 25 26 27 27 26 25 24 26 26 23 20 18 17 16 14
3 4 1 4 6 3 1 2 3 1 2 1 2 3 3 1 1 2 2 2 3 2 2 2 2 1 1 2 3 4 6 7 8 10 10 13 18 21 23 25 26 27 28 28 28 27 26 23 21 20 18 13 8 7 7 6 7 9 11 12 13 14 14 18 23 26 26 25 23 23 24 26 28 29 27 26 26 26 26 26 23 20 19 18 16 14
2 3 0 3 5 2 2 2 2 3 4 4 2 2 2 3 2 1 1 3 2 2 0 2 3 2 1 2 3 5 6 7 10 10 10 13 17 18 20 23 25 26 26 25 23 22 22 21 19 19 19 18 14 10 10 10 3 3 4 4 6 11 18 20 21 25 23 21 21 21 24 27 29 29 26 26 28 26 24 23 22 21 19 17 16 15
1 3 2 2 2 3 5 7 7 5 5 7 5 3 3 3 4 4 1 2 2 2 1 3 3 2 3 2 3 6 7 9 11 12 12 14 16 17 19 22 24 24 23 22 21 20 21 21 21 21 21 19 16 13 12 11 4 1 1 2 5 10 18 20 20 23 21 20 22 21 24 28 28 28 27 28 29 25 22 23 22 21 20 19 18 16
2 3 3 3 3 5 7 9 9 8 7 7 4 4 5 3 3 4 4 2 2 2 1 3 2 2 4 1 6 9 10 11 13 16 16 16 16 18 21 22 23 22 21 21 21 20 21 22 22 22 21 19 16 13 13 12 5 3 4 3 3 6 14 19 21 24 24 24 25 24 26 28 28 28 29 29 28 25 23 23 22 20 20 20 18 15
2 2 3 2 3 5 6 7 8 8 6 3 3 5 7 4 4 3 1 3 3 2 2 3 2 2 2 3 8 9 9 11 15 19 19 18 17 19 22 23 23 22 21 21 21 21 23 24 25 23 21 19 16 13 11 12 9 3 3 3 1 4 13 21 23 25 27 28 27 26 28 29 28 30 31 29 27 25 24 23 21 21 21 19 16 14
2 2 3 4 2 0 0 1 2 3 4 3 4 6 7 5 5 3 2 4 2 0 3 4 3 3 3 6 7 7 8 11 15 18 20 20 20 22 23 23 23 22 22 22 22 22 23 24 25 24 21 18 15 13 11 11 11 6 0 3 2 3 11 21 26 27 28 29 28 28 30 31 31 33 32 29 27 26 25 23 21 21 20 17 15 17
4 2 3 5 5 4 4 4 4 2 2 5 5 7 8 7 5 4 4 2 3 2 3 2 5 7 6 7 7 7 9 10 12 15 18 19 20 21 21 21 21 21 21 22 22 24 24 24 24 23 22 20 16 15 13 11 11 9 6 2 3 4 7 16 23 26 27 28 29 30 31 32 35 36 32 29 27 26 25 23 22 21 18 15 17 19
3 2 2 5 5 6 7 6 4 4 3 4 4 5 7 7 7 7 5 2 3 4 2 1 5 8 6 7 8 8 9 9 11 14 16 17 18 19 19 19 19 20 21 22 24 25 26 25 24 23 22 20 18 16 15 14 13 11 9 6 3 6 9 12 18 22 25 27 29 31 32 33 36 37 33 29 28 27 26 24 22 20 18 16 19 20
3 2 1 3 3 5 8 8 5 7 6 6 8 8 9 10 10 9 6 3 3 4 3 3 6 7 6 7 9 9 10 11 12 14 16 17 17 18 18 19 20 21 23 24 25 25 26 26 26 24 22 21 20 18 17 17 16 15 13 10 6 6 12 14 15 19 24 28 29 30 31 33 35 36 33 31 30 29 28 26 23 21 20 19 20 19
3 2 1 1 1 2 3 4 7 11 10 10 10 10 10 11 11 10 9 8 8 8 7 8 10 9 7 8 9 11 13 13 13 14 16 18 18 18 19 20 21 22 23 24 24 24 25 26 27 26 25 24 22 21 20 19 17 17 16 15 12 7 10 15 17 18 22 27 29 31 33 33 34 35 35 34 33 32 29 26 24 23 22 21 21 18
4 0 1 3 3 2 2 9 12 13 14 13 11 10 10 10 10 10 9 8 8 8 8 10 9 7 7 10 12 14 16 15 15 15 17 18 18 19 20 20 21 22 23 24 25 25 26 27 28 27 26 26 24 22 21 20 18 18 17 18 17 13 8 12 17 17 20 24 26 31 36 35 34 35 36 36 35 34 31 27 25 26 24 22 21 19
2 1 0 4 3 2 4 12 13 11 13 12 10 10 10 9 8 8 8 8 7 4 5 7 5 3 5 10 13 15 17 17 16 16 16 18 19 20 20 20 21 22 23 24 25 26 26 28 29 28 27 26 25 24 23 21 19 19 18 18 18 16 13 12 15 18 20 21 23 28 34 37 36 36 37 37 37 35 31 29 29 28 26 24 23 22
3 2 1 3 3 1 4 10 9 6 6 6 6 8 7 8 8 8 9 10 10 5 3 4 4 4 6 9 11 12 13 15 16 17 18 19 20 21 20 20 21 21 21 22 24 26 26 26 28 29 29 27 26 26 24 21 20 19 18 17 15 14 13 10 11 14 14 13 17 27 34 38 40 39 38 38 37 35 33 32 32 30 27 26 25 23
4 4 1 2 3 2 4 7 5 4 4 2 5 7 6 9 11 10 9 11 11 7 5 6 7 7 8 9 10 10 12 15 18 21 22 21 21 21 21 21 20 20 20 21 23 24 24 25 26 28 29 28 27 26 24 22 21 20 18 17 15 15 15 12 8 3 7 10 13 24 33 38 40 38 38 39 38 36 36 35 33 30 27 26 24 22
4 4 1 1 2 2 3 5 4 3 2 2 4 8 8 12 13 13 12 12 12 9 8 9 8 8 9 11 13 15 17 19 22 23 22 20 20 21 22 22 21 21 21 22 22 23 23 25 26 27 29 29 28 27 26 25 24 21 20 20 20 20 21 18 16 11 10 14 16 25 32 34 37 36 35 38 38 37 37 35 33 31 29 27 25 23
4 4 2 1 1 1 3 3 2 4 3 3 5 6 5 5 6 8 9 11 11 9 7 7 8 9 11 12 14 17 19 22 24 24 23 21 20 21 21 22 23 23 23 22 22 22 22 24 26 27 29 30 29 29 29 28 27 25 24 24 25 26 25 23 22 19 16 21 21 26 31 28 30 32 33 36 37 36 35 34 32 32 31 30 28 26
5 4 2 2 2 3 4 3 3 4 2 3 3 3 3 2 1 2 5 6 8 8 7 5 5 7 10 12 14 15 15 18 19 19 22 22 21 21 20 20 21 22 23 24 23 23 22 23 24 26 28 30 30 31 30 29 29 28 27 27 28 28 27 26 28 25 19 25 28 26 29 28 28 29 30 32 33 34 34 32 31 30 30 30 29 28
5 3 4 2 2 2 4 4 2 2 2 2 2 5 6 3 1 2 4 3 6 10 9 5 5 7 7 6 6 7 3 9 8 10 17 19 19 20 20 19 19 19 22 24 24 25 24 23 23 25 26 28 30 31 31 30 29 29 30 31 30 30 29 29 29 28 24 25 30 29 25 22 24 26 29 32 31 31 32 29 28 28 28 30 30 29
5 3 4 4 2 2 4 3 1 1 2 1 3 8 11 7 1 1 2 2 4 10 11 7 7 9 8 7 5 2 2 4 4 7 15 18 18 20 20 20 20 19 20 23 24 25 25 24 24 24 25 27 28 28 29 30 30 30 31 32 32 31 33 32 30 29 27 25 26 28 26 22 21 22 25 30 30 29 30 29 27 27 27 26 27 26
6 4 4 4 3 2 4 3 2 2 2 2 6 11 14 8 1 2 1 0 4 8 9 8 8 8 7 11 14 10 5 5 6 9 15 19 20 21 20 19 20 20 20 22 22 23 23 23 24 26 27 27 26 26 26 28 30 32 32 32 32 32 32 32 31 29 27 26 24 23 22 22 21 23 24 26 26 23 23 23 21 21 20 19 20 20
4 3 3 4 4 3 5 4 2 2 1 4 9 12 12 5 2 1 1 2 5 8 9 10 10 9 10 14 16 13 11 14 15 14 16 19 20 21 20 19 20 20 21 21 21 22 22 23 24 25 25 25 24 24 25 25 28 32 32 32 32 32 30 28 28 27 26 26 25 24 22 21 21 22 24 25 22 18 16 15 14 13 13 13 14 14
3 3 3 3 2 2 3 3 2 3 1 9 11 9 7 3 2 2 4 7 9 10 10 12 14 16 17 19 21 19 18 18 17 15 15 15 17 20 22 21 22 23 24 24 23 22 22 23 24 24 25 24 23 23 23 25 27 29 30 31 31 29 27 25 24 25 25 25 25 25 24 23 22 21 23 23 21 19 17 15 14 13 12 10 10 9
2 1 3 3 1 2 3 3 3 2 4 12 10 4 6 4 5 9 11 11 12 12 13 15 16 17 20 21 21 20 19 18 17 16 14 14 15 18 19 19 20 21 23 25 26 25 24 24 24 24 24 25 24 22 21 23 25 26 27 28 26 24 24 24 23 22 23 23 23 24 24 23 22 22 21 21 21 20 19 17 15 15 15 12 10 9
3 1 2 0 1 2 2 2 2 1 4 12 10 6 6 8 13 16 16 14 13 14 17 18 17 17 20 21 21 21 20 18 16 14 14 13 14 15 16 16 16 16 17 19 21 23 24 24 24 23 23 23 24 24 23 22 22 24 25 25 22 20 20 21 21 21 21 22 22 23 22 22 21 20 19 19 18 18 18 17 16 17 19 19 17 15
4 5 6 4 3 4 4 3 4 7 10 17 19 16 16 17 17 17 19 18 15 16 19 20 18 17 18 19 19 18 16 15 14 13 12 12 12 12 13 14 15 16 16 15 15 17 19 21 21 22 23 23 23 23 23 23 22 22 22 22 22 22 21 19 19 20 21 20 20 20 20 20 18 17 16 15 14 13 14 14 14 15 17 18 18 16
4 5 6 5 5 8 10 10 11 14 18 20 20 19 19 18 18 18 20 19 17 16 18 18 17 16 16 15 15 14 12 11 11 11 10 11 12 13 13 14 15 16 16 16 15 15 15 16 17 18 19 22 22 21 21 22 23 22 22 21 21 22 22 20 18 17 19 19 19 18 17 17 17 16 14 12 11 10 10 10 10 10 11 11 11 12
5 7 6 4 4 5 6 9 12 16 19 20 19 19 18 18 18 18 18 18 17 16 16 15 15 15 14 13 13 12 11 10 10 9 9 10 11 12 13 14 14 15 15 15 17 17 17 17 17 17 17 18 19 19 18 18 20 22 21 20 19 20 21 21 19 17 15 15 17 17 17 17 17 16 15 13 11 10 9 9 9 9 9 9 8 8
4 7 6 5 5 5 7 11 17 20 21 20 18 17 18 18 18 17 17 17 17 16 15 15 15 14 13 12 11 11 11 10 10 11 11 11 12 12 13 13 13 13 14 14 15 16 17 17 17 17 17 17 16 16 16 15 16 18 17 16 15 16 18 19 19 19 17 15 14 15 15 16 17 17 16 16 14 12 11 9 8 9 10 10 10 9
6 5 5 7 8 8 10 14 18 18 17 18 19 19 19 20 20 19 18 18 18 18 17 16 16 15 15 14 12 12 12 11 11 12 13 13 12 13 15 15 13 14 15 15 14 12 13 15 15 14 14 15 14 14 14 13 12 13 14 13 12 12 13 15 16 18 19 17 16 15 14 14 16 17 17 17 17 16 15 13 9 7 7 8 8 7
9 5 5 7 6 5 7 11 13 10 9 14 20 20 19 20 20 19 18 17 17 18 17 16 15 13 11 12 12 13 13 13 12 12 11 10 9 9 11 12 12 12 14 15 14 12 12 14 14 13 11 12 13 13 13 11 10 12 13 12 11 10 10 10 11 12 14 15 16 16 14 13 15 15 15 15 16 16 16 16 14 11 8 6 5 5
8 7 6 6 6 8 13 17 18 15 13 17 21 20 19 19 18 17 16 15 15 15 15 15 13 11 9 8 7 8 9 10 10 10 11 11 10 8 7 8 10 11 12 13 14 13 12 13 14 13 11 10 13 15 11 7 8 12 14 12 10 10 10 11 11 9 9 11 13 14 13 12 13 14 13 12 13 14 15 16 16 15 13 11 8 5
Wind_Direction
188 180 212 210 223 225 227 228 233 250 248 256 271 263 281 285 279 279 200 166 163 139 169 187 194 241 279 283 297 315 239 182 193 201 186 178 177 178 179 183 189 191 190 183 180 187 192 202 208 209 209 193 193 203 199 188 185 188 183 176 181 186 186 192 197 199 200 196 197 199 196 194 192 187 190 196 196 196 195 192 191 194 197 199 198 199
181 181 226 216 220 227 233 230 227 250 256 264 281 289 312 292 282 300 196 167 142 107 188 195 161 276 306 302 301 309 304 250 209 219 206 180 175 175 178 185 193 190 182 180 184 190 192 196 201 207 204 190 189 192 193 195 188 181 178 178 182 187 187 192 201 206 207 206 206 206 204 200 197 196 199 198 196 194 192 191 191 192 194 199 198 200
183 211 225 215 219 224 234 238 223 235 249 267 289 276 290 286 304 316 219 167 97 98 201 163 113 276 290 296 302 309 290 267 241 229 214 184 175 177 180 183 188 186 181 183 192 200 198 191 190 193 186 186 193 191 190 189 176 169 174 180 184 189 191 193 202 210 211 213 210 207 208 205 202 203 199 195 194 191 190 191 192 195 196 197 199 203
198 223 216 209 225 225 231 241 224 225 254 297 325 291 279 292 311 308 294 282 357 171 186 137 126 256 294 302 301 291 276 277 269 249 231 197 185 188 191 190 190 185 182 186 196 200 193 184 183 186 184 188 191 186 183 173 169 183 183 183 186 188 192 194 201 207 209 212 211 209 210 207 203 199 196 195 195 192 191 194 193 195 197 196 199 204
227 225 201 200 224 225 233 247 218 169 310 324 287 275 288 300 294 288 302 313 318 305 134 117 103 300 272 269 288 279 276 289 274 255 256 234 206 201 202 199 199 196 190 192 198 197 191 188 188 190 191 188 183 184 184 176 192 209 190 185 188 188 192 198 204 206 205 209 210 210 208 204 198 193 193 194 192 190 192 193 190 192 195 195 200 206
241 233 204 198 216 221 225 239 187 134 20 339 257 233 261 287 291 297 307 322 3 325 290 120 135 292 255 229 249 269 280 286 270 254 255 259 242 216 212 206 204 207 203 199 201 200 197 196 193 192 192 187 185 191 190 187 207 211 191 185 188 188 193 202 207 207 206 208 209 210 206 200 194 189 189 191 189 187 189 189 187 188 190 192 200 209
243 240 226 208 202 203 200 216 145 126 110 299 262 247 243 250 265 279 288 294 18 271 281 116 162 272 297 258 246 249 258 259 270 282 246 248 334 58 49 34 193 208 206 200 199 199 198 199 198 194 189 188 194 198 195 198 206 202 193 190 192 199 208 211 214 211 210 210 209 211 210 204 199 193 188 189 188 185 186 186 185 187 188 190 198 205
226 226 246 243 192 153 139 191 180 140 143 226 236 250 244 231 242 247 251 260 239 252 297 23 117 246 286 273 271 265 273 274 323 338 284 144 55 50 46 42 48 202 208 199 195 195 195 194 191 180 171 178 191 195 197 201 200 198 199 197 201 222 228 225 225 220 216 214 211 210 211 208 204 198 189 186 188 184 182 183 186 189 189 190 195 201
211 201 228 244 204 143 162 191 173 162 182 220 222 240 247 241 247 242 220 242 305 332 315 330 6 326 264 269 286 266 268 358 48 31 26 50 50 47 50 56 63 87 195 192 184 182 181 179 179 175 173 180 185 184 187 195 197 204 211 208 214 236 235 229 231 228 223 218 214 213 213 210 203 198 192 187 187 185 181 181 186 189 191 192 191 194
221 206 212 208 166 154 205 225 178 179 200 214 221 240 262 275 272 250 117 71 7 9 287 278 265 280 280 295 308 278 279 23 44 47 38 35 42 51 58 66 74 87 119 145 153 161 174 183 189 195 197 198 196 190 193 207 210 215 221 219 222 233 230 226 230 231 226 220 219 217 215 211 201 196 194 190 187 186 183 182 185 186 190 192 187 185
263 254 224 183 130 182 202 202 197 222 231 212 214 233 281 293 329 40 50 52 23 322 256 254 228 191 272 320 8 24 33 55 55 46 40 33 36 47 57 64 73 86 98 112 140 167 183 193 199 207 211 209 207 205 208 213 215 219 224 222 222 225 222 222 227 228 224 221 222 221 217 212 203 196 195 191 188 188 185 183 183 183 187 189 182 177
256 263 240 144 69 70 138 168 202 238 244 197 163 105 10 327 13 31 5 39 35 263 257 260 271 241 226 326 17 58 45 54 70 56 39 34 38 44 50 53 58 73 86 93 112 141 170 188 197 208 215 211 209 209 207 207 208 215 223 226 225 224 218 219 226 225 221 220 223 222 216 211 205 199 195 192 189 188 185 183 182 181 183 185 182 177
246 247 210 157 191 108 68 29 291 267 245 124 78 90 100 322 359 36 328 199 219 244 233 228 264 265 176 50 4 53 50 45 67 67 52 44 43 46 48 50 53 58 60 60 64 73 104 166 189 204 206 202 202 206 207 207 209 212 221 229 231 226 220 220 224 223 220 218 221 221 214 210 208 203 197 194 192 189 186 184 182 181 183 184 183 181
246 262 257 215 196 164 145 113 302 278 215 156 171 148 142 170 100 246 231 214 228 239 226 196 207 250 160 90 343 21 48 55 64 64 58 49 43 45 48 50 52 53 49 43 40 40 39 55 146 196 199 195 196 200 206 210 213 217 222 231 233 229 225 224 223 222 220 215 219 220 214 211 209 205 201 199 196 191 188 188 185 183 184 184 184 182
204 241 232 242 206 156 159 181 192 236 243 193 182 153 154 169 165 209 211 192 221 254 273 210 95 160 170 221 296 33 59 61 64 61 60 52 42 43 46 45 45 43 41 37 37 39 37 37 72 195 200 201 201 203 207 208 214 220 222 228 234 231 229 228 223 221 219 214 215 217 214 212 208 205 204 202 199 194 191 189 186 183 183 183 181 177
219 233 197 211 205 162 160 197 199 238 292 238 175 141 171 194 173 209 231 206 181 104 340 291 74 74 130 149 335 42 51 48 51 49 50 47 39 43 44 41 40 36 34 34 33 33 34 34 32 250 216 213 210 206 206 208 214 224 230 236 240 237 234 231 225 221 220 217 215 213 210 210 207 205 205 203 199 194 190 188 184 183 182 179 175 173
203 260 220 209 210 168 164 184 184 189 244 300 316 180 203 198 176 195 261 262 132 113 268 180 112 68 90 29 349 21 32 28 34 36 38 38 37 40 40 39 38 32 29 31 30 29 31 32 27 9 321 260 230 214 212 214 216 225 237 244 246 244 236 230 225 221 222 220 215 210 207 208 208 206 205 203 198 191 189 188 183 180 179 174 171 173
187 247 258 210 251 201 183 185 178 175 185 238 286 230 202 191 194 172 229 299 70 124 250 159 127 116 59 349 332 11 24 16 22 29 30 31 34 35 34 38 38 29 22 25 28 31 29 25 22 15 349 301 255 235 232 234 231 232 237 238 243 250 246 238 227 217 222 222 214 211 207 206 208 206 204 202 199 195 192 188 182 179 179 174 172 175
189 216 266 203 236 241 195 182 218 195 188 193 229 258 84 137 222 267 153 220 150 170 261 114 106 79 44 49 324 358 13 10 24 33 29 27 27 25 27 37 40 33 26 23 26 31 30 25 23 19 9 344 278 263 259 257 250 246 248 247 247 252 253 248 231 213 217 222 215 213 210 205 205 204 203 201 202 201 196 188 181 179 182 180 177 179
167 110 278 251 290 263 194 141 219 251 212 204 232 276 158 155 182 209 205 192 149 171 231 106 87 42 10 43 325 333 4 20 37 43 37 30 25 22 25 33 36 36 32 25 22 23 22 19 17 18 23 31 352 310 291 272 260 256 262 260 257 261 257 246 235 223 220 221 218 212 207 202 199 200 202 203 205 202 195 188 184 183 185 182 180 185
47 77 253 299 352 336 258 151 161 104 22 315 268 293 311 311 188 186 209 197 131 159 209 115 93 302 299 351 348 13 24 27 47 54 43 34 30 28 30 32 32 33 33 28 23 21 18 16 15 19 26 37 38 21 6 333 273 256 267 269 268 267 251 232 227 223 219 216 214 210 205 199 194 196 202 205 205 200 192 190 188 188 187 182 184 192
36 63 78 322 5 346 302 21 71 62 69 73 49 27 21 23 63 96 319 320 36 83 135 122 142 242 299 338 359 40 45 35 48 60 56 41 34 34 39 39 36 34 32 28 25 23 21 20 23 30 37 44 46 35 27 32 34 263 280 287 273 247 233 229 223 216 214 213 210 208 206 199 192 194 200 202 202 197 191 190 190 190 189 186 190 197
103 89 56 338 313 286 323 5 7 2 71 81 65 69 76 65 86 106 171 280 360 40 93 98 105 268 300 338 22 47 57 57 53 60 65 50 39 41 43 42 39 35 32 27 23 20 18 17 22 32 41 49 53 51 44 49 72 185 183 222 261 236 227 230 217 204 208 213 211 209 207 201 195 194 196 197 198 195 191 192 191 192 193 191 194 198
7 63 44 338 323 327 341 2 360 357 43 65 47 60 71 65 98 131 167 175 61 25 56 88 85 257 270 25 71 58 55 59 51 48 52 45 41 44 43 40 36 33 32 29 25 20 18 21 26 32 37 41 45 47 45 47 63 171 182 209 269 229 217 217 205 197 202 204 204 204 200 198 196 195 194 194 194 194 195 195 193 193 195 194 197 193
351 63 69 44 1 346 347 1 359 355 16 24 350 48 72 69 74 93 57 72 74 19 52 108 145 222 217 95 81 65 50 46 40 38 41 38 38 42 40 37 33 30 29 29 27 23 21 25 30 32 36 38 36 34 30 29 35 75 184 220 233 188 204 204 198 200 205 203 199 195 192 193 193 191 193 193 190 192 196 195 193 194 195 196 194 177
98 120 98 104 120 134 324 324 303 312 335 325 332 26 54 51 57 92 71 59 98 158 68 107 159 158 99 69 63 55 48 42 33 30 30 32 36 39 37 34 30 28 27 27 28 26 25 28 30 31 34 37 34 28 21 15 16 23 275 222 197 177 202 203 200 202 206 206 200 191 189 192 189 187 191 194 191 190 193 193 194 194 193 193 180 161
91 94 101 123 148 167 182 211 204 181 351 329 327 11 35 32 38 83 99 98 149 134 51 74 145 129 93 58 49 44 49 50 39 30 26 28 35 38 36 34 31 30 29 28 29 28 28 30 30 30 31 33 32 26 24 20 8 359 350 308 213 187 198 207 208 205 204 206 203 195 191 192 187 185 191 196 192 191 192 193 195 194 191 184 165 155
91 51 82 133 159 179 190 211 200 141 55 9 17 34 39 41 48 65 79 125 150 112 79 213 139 121 93 60 50 41 48 53 44 36 30 30 35 38 38 36 32 32 32 32 31 30 31 32 31 29 28 29 30 26 24 24 19 9 357 339 277 214 205 212 217 211 204 203 202 197 195 193 189 188 192 195 192 189 192 194 194 192 187 174 161 162
89 81 124 167 188 194 192 198 169 118 90 60 63 59 48 47 53 58 53 49 78 98 142 149 103 96 84 67 57 46 51 56 47 42 38 36 37 37 38 36 32 32 32 30 31 30 31 33 33 31 28 27 29 28 25 21 17 13 2 348 327 250 225 223 226 219 207 201 200 198 197 195 193 191 191 192 190 189 191 192 189 184 177 169 169 174
51 94 176 238 298 249 184 147 110 98 83 59 49 56 62 55 53 55 40 33 54 70 91 97 86 80 67 59 54 49 53 57 53 48 42 38 38 38 40 38 34 33 32 30 31 30 30 33 35 35 33 30 30 32 31 26 19 14 6 356 347 310 244 229 231 229 215 207 204 199 196 196 196 192 190 190 188 189 191 189 185 179 172 172 176 174
42 140 183 73 34 329 65 79 85 88 79 59 34 38 62 59 50 50 37 25 39 60 84 91 84 78 69 66 60 51 49 49 46 45 44 40 40 42 43 42 37 36 34 33 35 35 34 36 38 38 38 36 35 36 36 34 28 24 18 8 0 349 303 248 237 235 226 220 213 202 194 193 194 192 190 188 187 188 189 187 182 176 173 175 173 165
72 238 196 90 63 344 88 94 97 93 80 65 33 22 48 62 55 51 40 26 20 37 98 94 80 79 80 75 66 52 48 46 39 42 47 45 46 47 46 42 39 37 35 35 37 39 39 39 39 39 40 39 37 37 38 36 31 28 26 21 16 6 339 290 254 241 233 227 222 209 196 190 190 190 188 187 188 189 187 184 181 177 176 175 170 165
136 114 82 106 96 55 108 115 120 105 75 60 16 6 41 75 74 61 44 27 16 15 79 82 71 83 79 75 70 57 49 44 38 43 52 53 52 51 47 43 40 39 39 39 38 38 39 41 41 41 42 41 39 38 39 39 37 36 35 31 31 27 10 333 284 257 238 222 216 212 204 191 186 187 186 185 187 187 183 180 179 177 175 173 172 172
128 107 106 104 107 156 132 115 109 80 69 54 348 356 51 87 82 69 52 30 21 31 72 80 73 74 72 75 80 72 61 55 54 57 58 56 54 51 47 45 43 43 44 44 41 39 40 43 44 44 44 44 43 42 42 43 44 46 46 43 43 43 42 31 1 302 176 157 172 195 199 190 185 186 185 184 185 183 180 180 178 175 172 171 175 179
96 80 74 84 107 149 109 80 74 75 105 109 19 18 69 97 94 83 65 41 31 38 67 82 86 88 90 95 96 89 78 69 65 59 54 51 51 51 50 48 47 47 47 46 46 44 43 45 46 47 47 47 47 46 47 47 48 48 50 53 54 50 53 52 41 54 97 99 123 167 184 184 184 184 180 181 185 183 179 179 176 173 173 174 178 183
82 78 75 35 25 95 59 32 80 114 122 102 56 31 55 91 94 82 62 38 29 31 51 79 99 108 112 115 112 102 88 74 65 54 48 51 53 53 53 50 48 49 49 50 52 51 50 50 50 50 50 50 50 50 51 51 52 53 53 56 59 54 53 55 51 53 54 52 84 143 167 173 177 179 175 177 181 180 178 178 175 173 176 177 179 183
72 90 96 51 31 82 82 57 92 116 98 68 48 16 33 38 301 94 80 46 27 24 37 71 96 104 119 134 136 124 94 72 62 49 44 49 54 56 57 53 50 49 50 53 55 55 56 57 58 58 55 53 50 49 50 52 53 56 57 57 59 57 55 54 52 53 48 39 58 106 142 155 160 165 172 175 174 170 171 173 173 174 177 180 181 183
75 125 143 110 32 75 105 103 114 143 128 74 353 339 3 9 274 142 112 82 22 18 28 60 94 87 92 120 165 183 118 66 59 40 41 50 57 60 61 60 58 54 51 52 53 55 56 57 60 63 61 59 55 50 49 50 52 55 56 54 55 56 56 55 51 50 49 42 47 69 97 121 130 137 156 169 168 163 164 166 167 169 174 180 181 177
53 88 111 108 100 98 112 114 102 131 124 43 327 324 332 332 293 130 106 85 15 15 26 49 81 83 78 75 86 137 121 77 63 47 56 64 66 66 66 65 66 64 59 55 53 53 54 55 57 60 60 60 59 55 52 51 51 52 52 51 51 52 52 53 52 50 50 47 48 55 65 76 83 95 123 145 151 151 156 159 160 160 164 169 168 163
28 27 56 89 115 107 110 112 70 85 101 339 316 313 317 318 100 121 191 141 27 25 36 49 63 77 93 97 89 81 75 94 96 77 75 78 74 69 67 65 64 65 64 62 59 56 56 56 54 53 52 53 55 57 57 56 54 51 49 47 49 49 47 47 50 53 54 55 57 59 61 65 64 65 82 106 120 126 135 143 146 149 155 157 155 156
23 13 46 86 94 72 94 111 79 94 121 314 310 313 319 311 159 142 215 135 65 54 62 67 73 88 105 106 100 93 95 103 106 99 88 83 76 71 69 67 64 62 59 59 62 62 61 59 54 51 48 48 50 53 55 57 57 55 51 49 47 46 44 43 46 50 53 56 59 61 63 66 65 61 64 75 89 97 104 113 119 127 139 145 145 150
9 352 22 60 76 59 90 107 103 123 26 328 317 326 352 343 199 117 91 100 88 83 84 80 85 96 100 101 102 104 106 106 108 107 98 88 80 73 69 66 63 61 57 54 54 55 57 59 57 53 49 47 47 49 51 54 58 58 56 54 50 46 44 43 45 48 51 53 54 55 58 62 66 69 70 71 78 86 91 95 99 100 107 126 139 143
356 360 63 59 37 55 77 75 91 141 340 345 337 334 10 27 137 115 96 94 93 95 97 92 93 99 101 102 104 107 109 109 108 105 98 90 83 73 65 60 57 55 54 52 50 49 49 52 53 53 50 47 45 45 47 52 56 58 57 56 54 53 51 48 48 49 51 54 54 52 51 52 57 64 72 76 80 85 88 91 95 93 94 105 119 118
339 330 114 153 317 48 77 64 88 162 7 28 49 73 64 90 123 120 106 99 96 98 103 101 101 106 109 110 111 112 112 110 106 101 92 86 79 70 62 59 55 52 51 50 50 48 46 46 48 48 48 49 47 43 42 47 52 54 53 51 50 51 54 56 58 57 55 55 56 54 50 48 48 51 56 62 69 78 84 87 90 92 91 92 91 88
40 69 88 74 53 71 77 87 111 106 78 69 74 82 87 99 113 113 109 107 104 104 106 105 105 108 109 109 109 107 104 100 95 89 83 78 72 67 64 62 60 59 58 54 50 48 44 41 40 41 42 46 48 45 40 38 41 46 49 46 42 40 41 47 57 63 64 61 58 56 54 52 52 53 53 54 56 65 74 80 84 87 90 91 91 90
61 86 83 80 98 93 81 87 98 92 84 82 84 86 91 98 104 107 110 111 109 108 107 105 106 108 107 107 106 103 101 101 98 92 85 77 70 66 63 61 59 58 59 59 55 51 48 44 39 38 39 40 43 44 41 36 36 41 46 44 40 35 33 34 41 54 63 65 62 60 59 58 56 56 58 62 65 72 80 83 84 87 92 95 97 98
51 72 79 104 136 112 85 95 101 94 89 90 90 91 94 96 100 105 109 111 113 113 110 109 112 113 112 112 114 112 111 111 107 100 89 76 72 70 65 63 62 55 52 54 52 48 49 51 49 47 46 42 40 41 42 39 36 38 41 41 37 32 31 33 36 41 49 59 62 61 61 61 59 56 55 56 58 69 84 96 102 107 114 119 121 125
77 77 79 86 91 95 111 121 115 108 103 100 97 98 99 99 102 107 109 113 116 115 113 112 111 110 110 111 113 116 118 113 99 88 80 74 76 74 66 65 68 62 56 52 47 42 41 42 45 50 51 46 40 38 39 39 37 36 38 40 39 37 38 40 43 44 45 51 59 59 57 57 56 56 55 53 51 56 68 87 111 121 125 128 131 139
109 97 97 101 99 101 114 121 117 110 107 109 111 112 112 111 112 112 112 114 116 114 114 114 110 104 101 101 101 105 112 110 93 80 77 79 81 78 71 68 72 70 61 52 45 43 38 33 36 44 48 44 39 36 36 36 34 34 35 34 34 36 39 43 48 51 50 50 51 52 53 55 53 51 52 50 47 50 56 64 81 105 124 136 141 144
99 103 115 112 113 116 121 129 129 119 115 125 127 127 125 121 120 122 123 122 119 117 116 116 116 113 106 101 99 99 102 103 94 78 67 63 66 72 71 67 68 69 60 45 37 39 43 39 33 31 38 41 31 23 27 31 24 18 17 14 14 19 24 29 39 48 55 56 52 49 53 60 55 47 45 47 45 46 52 56 60 69 83 108 141 165
127 138 131 106 101 109 115 124 128 124 129 139 139 137 134 128 124 129 132 129 125 124 119 114 115 118 117 113 106 96 90 92 91 78 62 52 48 50 53 54 58 64 58 43 35 33 35 36 30 23 27 32 19 14 20 24 8 9 13 8 0 1 7 14 21 33 50 56 55 54 57 63 59 47 44 50 52 49 50 53 54 58 64 67 72 78
Height
1474 1478 1479 1479 1478 1475 1473 1473 1474 1472 1470 1470 1470 1472 1472 1472 1469 1459 1455 1452 1453 1462 1466 1465 1468 1467 1464 1462 1459 1460 1461 1461 1461 1462 1463 1465 1467 1469 1470 1472 1473 1474 1475 1477 1480 1482 1485 1487 1489 1490 1491 1492 1500 1506 1506 1506 1508 1509 1511 1512 1514 1517 1520 1522 1522 1524 1525 1526 1528 1528 1528 1529 1529 1530 1531 1532 1533 1535 1536 1537 1538 1540 1542 1544 1546 1547
1473 1479 1477 1473 1472 1471 1470 1470 1470 1469 1469 1469 1471 1472 1471 1471 1469 1459 1454 1452 1451 1460 1466 1463 1465 1466 1464 1462 1459 1458 1461 1462 1462 1462 1463 1464 1466 1468 1469 1472 1473 1472 1474 1476 1478 1479 1481 1484 1486 1488 1490 1492 1499 1503 1504 1506 1507 1509 1510 1511 1512 1514 1516 1518 1518 1519 1520 1521 1522 1524 1526 1528 1529 1530 1531 1531 1532 1534 1535 1536 1537 1539 1541 1543 1545 1546
1476 1476 1470 1467 1467 1467 1468 1467 1468 1468 1468 1470 1471 1473 1473 1470 1467 1462 1454 1452 1452 1458 1464 1463 1464 1466 1464 1463 1461 1459 1459 1459 1460 1461 1462 1463 1465 1467 1468 1470 1472 1471 1472 1473 1474 1477 1479 1481 1483 1485 1488 1492 1497 1501 1503 1505 1506 1507 1507 1509 1510 1510 1512 1514 1515 1517 1518 1519 1521 1522 1523 1526 1528 1530 1531 1531 1532 1533 1534 1535 1536 1538 1540 1542 1544 1545
1478 1469 1462 1463 1464 1465 1466 1465 1466 1467 1468 1471 1471 1474 1475 1469 1470 1470 1462 1457 1456 1458 1462 1462 1464 1466 1464 1464 1462 1461 1460 1458 1458 1459 1460 1461 1462 1463 1465 1466 1468 1469 1469 1469 1471 1474 1476 1479 1482 1484 1487 1491 1495 1498 1500 1502 1502 1502 1503 1506 1508 1509 1510 1512 1513 1515 1517 1519 1521 1523 1524 1526 1527 1529 1531 1531 1532 1532 1533 1534 1535 1537 1539 1541 1542 1544
1468 1459 1457 1461 1462 1462 1464 1463 1464 1467 1468 1469 1469 1473 1474 1469 1469 1470 1463 1460 1459 1460 1461 1462 1470 1471 1466 1466 1464 1459 1459 1458 1457 1458 1458 1459 1460 1461 1462 1462 1464 1464 1464 1466 1468 1472 1475 1477 1480 1482 1485 1489 1492 1494 1495 1497 1497 1497 1500 1504 1507 1507 1508 1509 1510 1512 1515 1517 1519 1521 1524 1526 1526 1527 1528 1528 1529 1530 1532 1533 1534 1536 1538 1539 1541 1542
1460 1454 1455 1458 1458 1459 1462 1463 1462 1464 1469 1471 1469 1469 1470 1468 1468 1466 1463 1464 1469 1470 1463 1463 1481 1482 1466 1465 1465 1460 1460 1459 1457 1457 1457 1458 1460 1461 1461 1461 1460 1459 1459 1462 1466 1470 1474 1476 1478 1480 1483 1486 1488 1490 1492 1494 1495 1495 1498 1502 1503 1504 1506 1508 1508 1509 1511 1513 1515 1518 1520 1522 1524 1524 1524 1524 1526 1528 1530 1531 1533 1535 1536 1538 1539 1541
1454 1451 1451 1453 1455 1457 1460 1462 1460 1461 1470 1475 1470 1466 1466 1467 1467 1467 1466 1470 1477 1477 1464 1462 1481 1486 1473 1467 1465 1462 1463 1461 1459 1459 1457 1459 1462 1462 1462 1462 1461 1460 1459 1462 1466 1470 1473 1475 1477 1480 1482 1484 1485 1487 1490 1492 1492 1493 1496 1500 1500 1501 1505 1507 1507 1506 1507 1509 1511 1514 1516 1519 1521 1522 1522 1523 1524 1526 1528 1530 1532 1533 1534 1536 1538 1539
1450 1450 1450 1449 1453 1457 1459 1461 1458 1459 1470 1475 1466 1463 1466 1466 1467 1467 1467 1471 1473 1471 1466 1463 1471 1483 1482 1471 1462 1461 1463 1464 1465 1464 1461 1461 1464 1464 1464 1463 1462 1462 1462 1464 1468 1472 1476 1478 1480 1483 1484 1486 1488 1490 1491 1491 1493 1494 1497 1500 1499 1499 1503 1506 1506 1505 1505 1506 1508 1511 1514 1516 1519 1521 1521 1522 1523 1524 1526 1528 1530 1531 1532 1534 1536 1537
1445 1449 1450 1449 1452 1456 1457 1457 1455 1457 1467 1468 1461 1462 1464 1464 1466 1465 1466 1471 1469 1472 1478 1471 1467 1483 1486 1470 1462 1461 1461 1468 1471 1468 1467 1466 1466 1466 1466 1464 1464 1464 1465 1468 1471 1475 1478 1481 1483 1486 1488 1490 1492 1494 1496 1497 1498 1498 1498 1500 1499 1498 1501 1504 1505 1505 1504 1507 1509 1511 1513 1515 1517 1520 1520 1520 1521 1522 1524 1526 1528 1529 1530 1532 1533 1535
1444 1445 1446 1446 1450 1452 1453 1452 1452 1457 1462 1460 1458 1460 1461 1462 1463 1462 1467 1471 1471 1481 1490 1478 1469 1484 1488 1471 1465 1467 1467 1474 1475 1470 1470 1470 1470 1470 1468 1466 1466 1467 1470 1474 1477 1479 1481 1482 1485 1486 1487 1489 1491 1494 1499 1501 1502 1501 1499 1499 1498 1496 1498 1501 1503 1503 1504 1507 1509 1511 1513 1514 1516 1518 1518 1519 1519 1520 1521 1524 1525 1527 1528 1530 1532 1533
1442 1442 1442 1443 1446 1447 1448 1450 1451 1454 1456 1455 1457 1460 1462 1463 1462 1463 1465 1468 1480 1492 1490 1477 1469 1480 1489 1480 1475 1479 1478 1477 1476 1473 1473 1472 1473 1474 1472 1471 1471 1471 1474 1477 1480 1481 1482 1485 1486 1486 1486 1488 1490 1493 1495 1497 1499 1501 1500 1500 1499 1496 1496 1498 1500 1501 1503 1506 1508 1510 1513 1515 1516 1516 1517 1517 1518 1519 1520 1521 1523 1525 1527 1529 1530 1532
1442 1444 1442 1440 1443 1445 1447 1450 1451 1451 1452 1454 1457 1461 1469 1471 1469 1472 1473 1475 1492 1500 1486 1475 1470 1476 1491 1492 1485 1483 1479 1475 1474 1475 1476 1476 1477 1477 1476 1476 1475 1476 1478 1479 1482 1483 1484 1486 1487 1487 1487 1488 1491 1492 1492 1492 1493 1496 1498 1498 1498 1496 1495 1496 1497 1499 1502 1506 1508 1511 1513 1515 1517 1516 1516 1517 1517 1518 1518 1520 1522 1524 1526 1528 1529 1530
1445 1444 1441 1440 1442 1444 1450 1454 1454 1454 1453 1455 1460 1465 1478 1485 1485 1491 1491 1490 1497 1494 1478 1471 1472 1479 1492 1493 1486 1482 1478 1475 1474 1475 1478 1479 1479 1480 1480 1479 1480 1481 1482 1483 1484 1485 1486 1487 1487 1487 1488 1489 1490 1490 1490 1490 1489 1491 1493 1495 1496 1496 1495 1495 1495 1497 1501 1505 1508 1511 1514 1515 1517 1518 1518 1517 1517 1518 1518 1519 1520 1522 1524 1526 1528 1529
1453 1447 1441 1443 1444 1443 1449 1457 1462 1460 1456 1459 1463 1469 1482 1491 1498 1504 1499 1495 1495 1487 1474 1468 1474 1486 1494 1491 1485 1483 1480 1477 1476 1476 1478 1479 1479 1481 1481 1481 1483 1485 1486 1486 1486 1487 1487 1488 1487 1487 1487 1487 1488 1488 1488 1488 1489 1489 1490 1492 1494 1494 1495 1494 1494 1496 1500 1504 1507 1511 1514 1515 1517 1519 1519 1519 1519 1519 1519 1519 1520 1521 1523 1525 1527 1529
1461 1459 1447 1445 1446 1443 1446 1452 1457 1458 1457 1459 1457 1462 1474 1480 1491 1499 1494 1492 1492 1485 1476 1471 1477 1488 1494 1492 1486 1482 1481 1478 1477 1478 1478 1478 1479 1480 1481 1481 1482 1485 1487 1488 1489 1489 1490 1489 1489 1487 1486 1486 1487 1487 1487 1488 1489 1488 1489 1491 1492 1493 1494 1494 1495 1497 1501 1504 1507 1510 1513 1515 1516 1518 1520 1520 1520 1520 1520 1521 1521 1521 1522 1524 1526 1528
1458 1458 1443 1440 1441 1440 1445 1447 1448 1454 1460 1457 1450 1458 1469 1468 1473 1482 1481 1479 1481 1484 1481 1477 1483 1489 1487 1487 1484 1481 1482 1480 1479 1480 1479 1481 1482 1480 1481 1482 1482 1484 1486 1488 1488 1489 1490 1490 1490 1489 1488 1488 1488 1488 1489 1489 1489 1489 1489 1490 1491 1492 1494 1495 1497 1499 1502 1505 1507 1509 1512 1514 1516 1517 1520 1521 1521 1521 1522 1522 1522 1522 1522 1523 1525 1527
1456 1453 1438 1437 1439 1437 1443 1445 1444 1453 1460 1457 1457 1462 1461 1455 1461 1474 1479 1473 1474 1489 1486 1476 1488 1494 1487 1488 1487 1483 1485 1483 1483 1485 1484 1484 1484 1483 1484 1484 1484 1484 1485 1488 1488 1488 1489 1489 1490 1490 1490 1490 1491 1491 1490 1490 1491 1490 1489 1491 1492 1493 1494 1496 1497 1499 1502 1505 1507 1509 1511 1513 1515 1517 1519 1520 1521 1521 1521 1522 1522 1522 1523 1523 1524 1526
1451 1453 1440 1437 1442 1439 1439 1442 1442 1445 1451 1457 1462 1459 1451 1452 1457 1466 1478 1480 1482 1493 1486 1475 1490 1500 1497 1499 1495 1491 1492 1490 1489 1490 1488 1487 1486 1486 1488 1488 1488 1487 1486 1488 1489 1489 1489 1488 1489 1490 1490 1490 1491 1492 1492 1491 1491 1490 1490 1491 1493 1494 1494 1494 1496 1499 1503 1506 1507 1508 1508 1511 1514 1516 1518 1520 1520 1521 1521 1521 1522 1522 1523 1523 1523 1525
1444 1455 1447 1436 1441 1440 1436 1442 1448 1445 1444 1451 1455 1450 1452 1465 1470 1469 1477 1484 1488 1493 1486 1482 1494 1502 1505 1507 1503 1500 1499 1494 1492 1491 1491 1491 1489 1489 1491 1491 1492 1491 1489 1489 1490 1490 1490 1489 1489 1489 1489 1489 1489 1490 1490 1489 1489 1489 1489 1490 1491 1493 1492 1493 1496 1499 1502 1503 1504 1504 1506 1509 1512 1515 1517 1518 1519 1520 1520 1521 1521 1521 1522 1522 1523 1524
1441 1453 1454 1440 1438 1440 1438 1445 1455 1453 1446 1447 1449 1448 1452 1461 1467 1469 1471 1474 1482 1490 1488 1488 1499 1507 1508 1507 1506 1504 1500 1495 1494 1494 1494 1495 1493 1492 1492 1493 1494 1494 1493 1491 1489 1486 1485 1486 1487 1487 1488 1488 1487 1488 1487 1487 1487 1486 1486 1487 1488 1490 1491 1493 1495 1498 1499 1500 1501 1502 1504 1508 1511 1514 1516 1517 1518 1519 1519 1521 1520 1521 1521 1522 1522 1524
1443 1452 1458 1448 1441 1445 1447 1447 1451 1455 1455 1455 1457 1458 1458 1457 1457 1461 1465 1465 1471 1483 1486 1489 1505 1514 1507 1503 1504 1504 1501 1498 1497 1497 1499 1499 1497 1495 1495 1495 1495 1495 1495 1493 1491 1489 1490 1492 1493 1491 1489 1488 1487 1488 1488 1487 1486 1485 1485 1485 1486 1488 1490 1492 1495 1496 1498 1500 1502 1503 1504 1507 1509 1512 1514 1516 1517 1518 1519 1520 1520 1520 1521 1521 1522 1524
1451 1456 1462 1459 1454 1456 1454 1447 1446 1451 1456 1461 1464 1466 1468 1467 1466 1470 1475 1472 1472 1482 1487 1492 1509 1516 1507 1503 1504 1502 1502 1502 1500 1501 1503 1502 1500 1500 1500 1499 1499 1498 1498 1498 1498 1498 1500 1499 1498 1497 1495 1493 1492 1491 1490 1489 1488 1487 1487 1486 1486 1487 1489 1493 1496 1498 1500 1502 1504 1505 1505 1506 1508 1510 1512 1514 1516 1517 1518 1519 1520 1521 1521 1521 1523 1524
1452 1457 1463 1464 1460 1457 1452 1447 1448 1450 1451 1457 1463 1467 1469 1471 1474 1481 1486 1484 1481 1486 1489 1494 1509 1516 1509 1505 1504 1504 1505 1505 1505 1505 1504 1504 1504 1503 1503 1503 1502 1502 1503 1502 1502 1501 1501 1499 1498 1497 1496 1496 1496 1494 1493 1491 1488 1486 1486 1486 1485 1486 1489 1492 1494 1496 1498 1500 1502 1503 1503 1504 1506 1507 1509 1511 1514 1516 1517 1519 1520 1521 1521 1521 1523 1524
1454 1462 1468 1467 1461 1455 1450 1448 1450 1451 1453 1461 1466 1466 1468 1471 1474 1478 1481 1481 1485 1491 1490 1494 1509 1516 1511 1506 1505 1507 1508 1507 1508 1506 1503 1505 1506 1506 1506 1505 1505 1505 1505 1505 1504 1502 1501 1500 1497 1496 1494 1494 1493 1493 1492 1491 1488 1486 1485 1485 1486 1487 1489 1489 1491 1492 1493 1494 1496 1497 1498 1500 1502 1505 1507 1509 1511 1514 1516 1518 1519 1520 1520 1521 1523 1524
1459 1468 1472 1474 1475 1470 1464 1463 1467 1466 1466 1471 1471 1467 1469 1472 1471 1475 1477 1478 1487 1495 1493 1496 1510 1513 1508 1506 1507 1509 1510 1509 1509 1507 1505 1507 1507 1507 1507 1507 1506 1507 1506 1506 1505 1503 1501 1499 1497 1496 1494 1493 1491 1490 1490 1489 1489 1488 1487 1487 1486 1487 1488 1489 1489 1490 1490 1490 1491 1492 1494 1496 1498 1501 1504 1507 1509 1512 1515 1517 1518 1519 1520 1521 1523 1524
1462 1470 1472 1477 1485 1487 1485 1485 1486 1484 1481 1479 1477 1472 1473 1474 1473 1477 1481 1482 1489 1496 1495 1500 1510 1511 1508 1507 1509 1511 1511 1510 1509 1509 1508 1508 1509 1509 1508 1508 1508 1508 1507 1507 1506 1505 1503 1500 1499 1497 1495 1494 1492 1491 1489 1488 1488 1487 1486 1486 1486 1487 1488 1488 1488 1488 1489 1489 1489 1488 1489 1491 1494 1497 1501 1504 1507 1510 1513 1515 1517 1518 1520 1521 1522 1523
1463 1470 1472 1476 1482 1485 1488 1488 1485 1486 1488 1487 1485 1482 1480 1479 1477 1478 1483 1488 1492 1496 1499 1503 1506 1508 1510 1511 1512 1513 1511 1511 1511 1512 1512 1511 1511 1512 1511 1511 1512 1510 1510 1509 1507 1506 1504 1502 1500 1498 1497 1495 1493 1492 1490 1488 1487 1486 1485 1485 1485 1486 1486 1487 1487 1486 1487 1488 1488 1487 1487 1488 1490 1494 1499 1503 1505 1508 1511 1513 1516 1518 1519 1521 1522 1523
1465 1471 1473 1475 1478 1478 1481 1482 1481 1485 1491 1491 1490 1489 1486 1483 1483 1484 1487 1491 1492 1494 1500 1504 1503 1507 1513 1514 1514 1515 1513 1513 1514 1515 1515 1515 1515 1515 1514 1514 1514 1513 1512 1510 1509 1507 1505 1503 1502 1500 1498 1496 1493 1492 1490 1489 1488 1486 1485 1485 1484 1484 1484 1484 1484 1484 1485 1486 1487 1487 1487 1487 1489 1492 1497 1501 1504 1507 1509 1512 1515 1517 1518 1520 1521 1523
1467 1474 1474 1474 1475 1475 1475 1477 1479 1486 1492 1492 1491 1492 1491 1489 1490 1492 1494 1494 1494 1495 1499 1504 1506 1511 1515 1516 1516 1517 1516 1516 1517 1518 1518 1518 1517 1516 1516 1515 1515 1514 1512 1511 1510 1508 1506 1505 1503 1501 1499 1497 1494 1492 1490 1489 1488 1486 1485 1485 1484 1484 1483 1483 1483 1483 1483 1483 1484 1485 1486 1488 1489 1491 1495 1499 1502 1505 1508 1511 1514 1516 1517 1519 1521 1522
1469 1474 1474 1473 1474 1473 1471 1474 1480 1487 1492 1494 1495 1495 1496 1497 1497 1499 1500 1498 1498 1500 1503 1507 1511 1515 1518 1519 1519 1519 1519 1519 1520 1520 1520 1519 1518 1518 1517 1517 1517 1515 1514 1512 1511 1510 1508 1506 1504 1502 1501 1498 1496 1494 1491 1490 1488 1487 1486 1484 1483 1483 1482 1482 1481 1480 1480 1480 1481 1482 1484 1486 1488 1490 1493 1497 1500 1504 1507 1510 1512 1514 1516 1518 1520 1522
1471 1474 1472 1473 1477 1476 1475 1480 1487 1491 1495 1501 1503 1500 1499 1502 1503 1504 1505 1504 1504 1506 1509 1512 1516 1519 1521 1521 1521 1522 1522 1521 1522 1522 1521 1521 1521 1520 1519 1520 1519 1517 1516 1515 1513 1512 1510 1508 1506 1504 1502 1500 1498 1495 1493 1491 1489 1488 1486 1485 1483 1482 1481 1480 1479 1478 1478 1478 1479 1481 1482 1485 1488 1490 1492 1495 1499 1502 1505 1508 1510 1513 1515 1517 1519 1521
1472 1473 1472 1475 1481 1482 1482 1487 1491 1493 1495 1503 1509 1507 1504 1507 1509 1510 1512 1512 1511 1511 1511 1513 1518 1522 1523 1522 1523 1524 1524 1524 1525 1524 1524 1524 1523 1522 1522 1522 1521 1520 1519 1517 1516 1514 1512 1510 1508 1505 1503 1502 1499 1497 1494 1493 1491 1489 1487 1485 1484 1482 1481 1479 1478 1476 1476 1476 1477 1479 1481 1484 1487 1490 1491 1494 1497 1500 1503 1505 1508 1511 1514 1516 1518 1519
1471 1474 1474 1476 1483 1487 1487 1489 1491 1491 1495 1506 1513 1511 1508 1510 1513 1515 1517 1516 1515 1513 1513 1516 1519 1522 1523 1523 1524 1527 1528 1528 1528 1527 1527 1527 1525 1525 1525 1524 1523 1523 1521 1520 1518 1516 1514 1512 1510 1508 1505 1503 1501 1499 1497 1494 1492 1490 1488 1487 1485 1483 1481 1479 1478 1476 1475 1475 1476 1477 1479 1481 1485 1487 1489 1493 1496 1499 1501 1504 1506 1509 1512 1514 1515 1516
1469 1473 1474 1476 1482 1487 1487 1487 1489 1494 1504 1515 1516 1511 1509 1513 1515 1519 1522 1522 1519 1517 1518 1520 1522 1523 1525 1525 1527 1530 1531 1531 1531 1530 1530 1529 1528 1527 1526 1526 1525 1524 1523 1522 1520 1518 1517 1514 1512 1510 1508 1506 1504 1502 1499 1497 1495 1493 1491 1489 1487 1485 1482 1480 1479 1477 1475 1476 1476 1475 1477 1480 1483 1485 1488 1491 1495 1497 1499 1502 1504 1507 1510 1512 1514 1516
1470 1473 1475 1477 1480 1483 1484 1486 1491 1503 1515 1519 1516 1513 1512 1514 1516 1519 1524 1525 1523 1522 1522 1523 1525 1526 1528 1529 1529 1531 1532 1533 1533 1532 1532 1531 1530 1529 1528 1528 1526 1525 1524 1522 1521 1520 1518 1516 1514 1512 1510 1508 1507 1505 1502 1500 1497 1495 1493 1491 1488 1487 1484 1481 1480 1479 1477 1477 1475 1474 1476 1479 1483 1487 1488 1490 1493 1495 1496 1500 1502 1504 1508 1511 1513 1516
1472 1476 1478 1480 1481 1485 1490 1493 1499 1512 1518 1516 1515 1516 1515 1516 1516 1518 1524 1527 1526 1525 1525 1526 1527 1528 1529 1530 1531 1531 1533 1533 1533 1534 1533 1532 1531 1530 1530 1529 1528 1527 1525 1524 1523 1521 1519 1518 1516 1514 1513 1511 1509 1507 1505 1502 1500 1498 1495 1493 1490 1488 1486 1483 1482 1481 1482 1482 1477 1473 1475 1478 1482 1487 1489 1490 1492 1493 1496 1499 1501 1502 1505 1508 1512 1514
1473 1477 1480 1482 1485 1492 1501 1507 1511 1516 1518 1518 1519 1518 1517 1519 1518 1518 1524 1530 1529 1527 1527 1527 1528 1529 1529 1530 1531 1532 1532 1532 1533 1535 1535 1534 1533 1532 1531 1530 1530 1529 1527 1526 1525 1523 1521 1520 1518 1516 1515 1513 1511 1509 1507 1505 1503 1500 1497 1495 1492 1490 1488 1486 1484 1484 1487 1488 1481 1472 1473 1478 1482 1486 1489 1490 1491 1493 1495 1497 1499 1501 1504 1507 1511 1513
1473 1476 1479 1483 1490 1495 1501 1510 1514 1515 1518 1522 1523 1519 1517 1519 1518 1516 1523 1530 1530 1528 1528 1528 1528 1529 1530 1530 1531 1532 1532 1533 1536 1538 1538 1536 1535 1533 1533 1532 1531 1530 1529 1528 1527 1525 1523 1522 1520 1519 1517 1515 1513 1512 1510 1508 1505 1502 1499 1497 1495 1493 1491 1489 1488 1487 1488 1489 1484 1476 1477 1481 1484 1486 1488 1489 1490 1492 1494 1496 1498 1501 1504 1507 1510 1512
1474 1476 1478 1483 1491 1493 1495 1503 1511 1514 1519 1524 1523 1520 1518 1517 1517 1517 1521 1529 1532 1529 1528 1528 1528 1529 1530 1530 1531 1531 1532 1536 1540 1541 1539 1538 1537 1535 1535 1534 1533 1532 1531 1529 1528 1526 1525 1524 1522 1521 1519 1516 1515 1514 1512 1510 1507 1504 1502 1500 1498 1496 1494 1493 1493 1492 1491 1490 1488 1485 1485 1487 1490 1491 1489 1487 1489 1492 1493 1496 1499 1502 1505 1507 1509 1510
1479 1481 1481 1484 1490 1491 1494 1505 1515 1520 1523 1524 1522 1521 1518 1517 1518 1517 1519 1527 1532 1531 1529 1529 1529 1529 1530 1531 1530 1531 1533 1537 1541 1542 1541 1539 1538 1537 1536 1536 1535 1534 1532 1531 1529 1528 1526 1525 1524 1522 1521 1519 1518 1516 1514 1512 1509 1507 1506 1504 1502 1500 1499 1499 1498 1496 1495 1494 1492 1492 1492 1493 1495 1496 1491 1488 1490 1494 1495 1498 1501 1503 1506 1508 1509 1510
1487 1487 1486 1488 1493 1494 1498 1510 1519 1523 1524 1523 1521 1521 1519 1518 1518 1519 1522 1528 1532 1531 1530 1530 1529 1530 1531 1531 1531 1533 1536 1538 1540 1542 1542 1541 1539 1539 1538 1538 1537 1535 1534 1532 1530 1528 1527 1526 1525 1524 1523 1522 1521 1519 1517 1514 1512 1510 1510 1508 1506 1505 1505 1504 1503 1501 1500 1498 1496 1497 1497 1497 1497 1497 1494 1492 1495 1498 1500 1502 1504 1505 1507 1509 1509 1510
1497 1495 1491 1494 1498 1497 1500 1510 1518 1523 1524 1522 1519 1519 1518 1518 1521 1524 1528 1532 1532 1532 1532 1532 1531 1532 1532 1533 1533 1535 1538 1539 1541 1542 1542 1542 1541 1540 1539 1539 1538 1537 1536 1534 1532 1530 1528 1527 1527 1526 1525 1524 1523 1521 1519 1517 1515 1514 1513 1511 1510 1510 1510 1509 1507 1505 1504 1503 1501 1501 1501 1501 1500 1499 1498 1499 1501 1502 1503 1505 1506 1507 1508 1509 1508 1510
1504 1501 1499 1504 1505 1501 1503 1512 1518 1523 1524 1520 1518 1519 1520 1521 1526 1529 1531 1532 1533 1533 1533 1533 1534 1534 1535 1536 1537 1538 1539 1540 1541 1542 1543 1543 1542 1541 1540 1539 1538 1538 1537 1535 1534 1532 1531 1530 1529 1528 1527 1526 1525 1523 1522 1520 1518 1517 1516 1515 1515 1515 1514 1512 1510 1509 1508 1507 1506 1505 1504 1504 1504 1503 1503 1504 1505 1505 1506 1507 1508 1508 1509 1509 1510 1512
1505 1502 1503 1509 1510 1507 1512 1519 1522 1525 1526 1521 1520 1523 1525 1526 1529 1530 1531 1533 1534 1535 1534 1534 1536 1537 1537 1538 1539 1540 1541 1542 1542 1543 1543 1543 1542 1542 1541 1540 1539 1539 1538 1537 1536 1535 1534 1533 1532 1531 1530 1529 1527 1526 1525 1523 1521 1520 1519 1519 1519 1518 1516 1515 1514 1512 1511 1510 1509 1509 1508 1508 1508 1508 1508 1508 1508 1509 1509 1510 1511 1511 1511 1511 1513 1516
1508 1505 1504 1509 1513 1514 1518 1523 1525 1526 1526 1524 1524 1527 1528 1529 1530 1531 1532 1534 1535 1536 1536 1536 1538 1539 1540 1540 1541 1541 1542 1543 1544 1544 1544 1543 1543 1542 1541 1541 1540 1539 1539 1538 1538 1537 1536 1535 1534 1533 1532 1531 1529 1529 1527 1526 1524 1523 1522 1522 1522 1521 1519 1518 1517 1515 1514 1513 1512 1512 1512 1512 1512 1512 1512 1512 1513 1513 1513 1514 1515 1514 1515 1515 1516 1518
1508 1507 1506 1510 1515 1518 1521 1525 1526 1526 1527 1528 1528 1530 1531 1532 1533 1533 1534 1535 1536 1537 1538 1538 1539 1540 1541 1542 1542 1543 1544 1544 1545 1545 1545 1544 1543 1542 1542 1542 1541 1541 1540 1540 1539 1539 1538 1537 1537 1535 1534 1533 1532 1531 1530 1529 1528 1526 1526 1525 1524 1523 1522 1521 1519 1518 1517 1516 1516 1515 1515 1515 1515 1516 1516 1516 1516 1516 1517 1517 1517 1517 1518 1518 1519 1520
1507 1507 1508 1512 1515 1518 1523 1528 1528 1528 1529 1530 1531 1533 1534 1535 1535 1536 1536 1537 1538 1539 1539 1540 1541 1542 1542 1543 1543 1544 1545 1545 1546 1546 1545 1544 1543 1543 1543 1542 1542 1542 1542 1542 1541 1540 1539 1539 1538 1537 1536 1535 1535 1534 1533 1532 1531 1530 1529 1528 1526 1525 1525 1523 1522 1521 1520 1519 1518 1518 1517 1518 1518 1518 1518 1518 1518 1518 1519 1519 1519 1520 1520 1521 1522 1522
1509 1509 1511 1514 1516 1518 1524 1528 1528 1529 1531 1532 1534 1536 1536 1536 1537 1538 1538 1539 1539 1540 1541 1542 1542 1543 1543 1544 1544 1544 1545 1546 1546 1546 1546 1545 1544 1544 1543 1543 1543 1543 1543 1542 1542 1541 1541 1540 1539 1539 1538 1537 1537 1536 1535 1534 1534 1533 1531 1530 1529 1528 1527 1526 1525 1524 1523 1522 1521 1521 1520 1520 1520 1520 1520 1520 1519 1519 1519 1520 1520 1521 1521 1522 1523 1524
1509 1510 1513 1516 1519 1522 1526 1528 1529 1531 1533 1534 1535 1536 1536 1537 1538 1538 1539 1540 1541 1541 1542 1543 1543 1544 1544 1544 1545 1545 1545 1546 1546 1546 1546 1545 1545 1544 1544 1544 1544 1544 1544 1543 1543 1542 1542 1541 1541 1540 1540 1539 1538 1538 1537 1536 1535 1534 1532 1531 1530 1529 1528 1528 1527 1526 1525 1525 1524 1523 1523 1522 1522 1522 1522 1521 1521 1521 1520 1521 1521 1522 1522 1523 1524 1524
1510 1513 1516 1518 1521 1525 1527 1527 1528 1531 1533 1535 1536 1536 1537 1537 1538 1538 1540 1541 1542 1542 1543 1543 1544 1545 1545 1545 1545 1545 1545 1546 1546 1546 1546 1546 1546 1545 1545 1545 1545 1545 1544 1544 1544 1544 1543 1543 1543 1542 1541 1540 1539 1539 1538 1537 1536 1535 1534 1533 1532 1531 1530 1529 1529 1528 1527 1527 1526 1525 1525 1525 1524 1524 1524 1523 1523 1523 1523 1523 1523 1523 1524 1524 1524 1525
1512 1514 1516 1517 1521 1524 1525 1526 1528 1529 1532 1534 1536 1536 1537 1538 1539 1540 1541 1542 1543 1544 1544 1544 1545 1545 1545 1546 1546 1546 1546 1547 1547 1546 1546 1547 1547 1546 1546 1546 1546 1546 1546 1546 1546 1545 1545 1544 1543 1543 1542 1541 1540 1539 1539 1538 1537 1537 1535 1534 1533 1532 1531 1531 1530 1530 1529 1529 1528 1527 1527 1526 1526 1526 1525 1525 1525 1525 1525 1525 1525 1525 1525 1525 1526 1526